EW8484 Weather Reports


Display with metric or nautical units.
time (UTC)temp
F
wind
direction
speed
MPH
gust
MPH
rain 1hr
in
rain 24hr
in
rain mn
in
humidity
%
barometer
mb
20260506035526 63 191 1.0 4.0 0.00 0.00 0.00 54 1011.5
20260506035046 63 231 1.0 2.0 0.00 0.00 0.00 54 1011.5
20260506034546 63 172 2.0 3.0 0.00 0.00 0.00 53 1011.6
20260506034025 63 207 1.0 3.0 0.00 0.00 0.00 53 1011.7
20260506033526 63 213 1.0 5.0 0.00 0.00 0.00 52 1011.6
20260506033025 64 192 2.0 4.0 0.00 0.00 0.00 52 1011.7
20260506032526 64 189 1.0 3.0 0.00 0.00 0.00 52 1011.6
20260506032026 64 173 2.0 6.0 0.00 0.00 0.00 52 1011.8
20260506031525 64 168 2.0 6.0 0.00 0.00 0.00 52 1011.7
20260506031046 64 233 1.0 4.0 0.00 0.00 0.00 52 1011.8
20260506030525 64 185 1.0 4.0 0.00 0.00 0.00 52 1011.7
20260506030025 64 173 1.0 5.0 0.00 0.00 0.00 52 1011.6
20260506025525 64 176 2.0 5.0 0.00 0.00 0.00 52 1011.5
20260506025026 64 183 1.0 6.0 0.00 0.00 0.00 51 1011.5
20260506024526 64 211 1.0 4.0 0.00 0.00 0.00 51 1011.6
20260506024025 64 182 2.0 5.0 0.00 0.00 0.00 52 1011.5
20260506023525 64 200 1.0 3.0 0.00 0.00 0.00 52 1011.4
20260506023025 64 178 2.0 5.0 0.00 0.00 0.00 51 1011.4
20260506022525 63 169 1.0 4.0 0.00 0.00 0.00 51 1011.4
20260506022025 63 181 2.0 5.0 0.00 0.00 0.00 51 1011.3
20260506021526 64 177 1.0 4.0 0.00 0.00 0.00 51 1011.4
20260506021025 64 188 1.0 4.0 0.00 0.00 0.00 51 1011.4
20260506020546 63 193 2.0 5.0 0.00 0.00 0.00 51 1011.4
20260506020028 64 280 1.0 3.0 0.00 0.00 0.00 51 1011.4
20260506015525 64 100 1.0 2.0 0.00 0.00 0.00 51 1011.4
20260506015026 64 95 1.0 3.0 0.00 0.00 0.00 50 1011.3
20260506014546 64 162 2.0 7.0 0.00 0.00 0.00 50 1011.4
20260506014025 64 177 1.0 4.0 0.00 0.00 0.00 49 1011.3
20260506013526 65 163 1.0 4.0 0.00 0.00 0.00 49 1011.2
20260506013025 65 182 2.0 9.0 0.00 0.00 0.00 49 1011.2
20260506012527 65 166 1.0 5.0 0.00 0.00 0.00 49 1011.0
20260506012025 65 171 1.0 4.0 0.00 0.00 0.00 49 1011.1
20260506011525 66 166 2.0 4.0 0.00 0.00 0.00 48 1010.9
20260506011025 66 226 1.0 3.0 0.00 0.00 0.00 48 1010.7
20260506010526 66 198 2.0 7.0 0.00 0.00 0.00 48 1010.7
20260506010105 66 165 2.0 5.0 0.00 0.00 0.00 48 1010.7
20260506005526 67 137 2.0 6.0 0.00 0.00 0.00 48 1010.6
20260506005026 67 181 1.0 6.0 0.00 0.00 0.00 47 1010.6
20260506004525 67 191 2.0 4.0 0.00 0.00 0.00 47 1010.6
20260506004026 67 201 2.0 3.0 0.00 0.00 0.00 47 1010.5
20260506003527 67 174 3.0 7.0 0.00 0.00 0.00 46 1010.4
20260506003025 68 159 2.0 4.0 0.00 0.00 0.00 46 1010.3
20260506002528 68 219 3.0 8.0 0.00 0.00 0.00 45 1010.2
20260506002027 68 207 2.0 8.0 0.00 0.00 0.00 46 1010.2
20260506001548 68 211 1.0 3.0 0.00 0.00 0.00 45 1010.0
20260506001027 69 185 2.0 5.0 0.00 0.00 0.00 46 1010.0
20260506000527 69 212 3.0 8.0 0.00 0.00 0.00 44 1009.9
20260506000048 69 193 2.0 7.0 0.00 0.00 0.00 44 1009.8
20260505235547 69 187 3.0 11.0 0.00 0.00 0.00 44 1009.6
20260505235108 69 203 2.0 7.0 0.00 0.00 0.00 43 1009.6
20260505234527 70 185 2.0 6.0 0.00 0.00 0.00 44 1009.5
20260505234027 70 222 2.0 6.0 0.00 0.00 0.00 42 1009.4
20260505233527 70 193 2.0 9.0 0.00 0.00 0.00 42 1009.3
20260505233027 70 178 4.0 14.0 0.00 0.00 0.00 42 1009.2
20260505232527 70 184 1.0 4.0 0.00 0.00 0.00 42 1009.1
20260505232027 71 221 2.0 8.0 0.00 0.00 0.00 42 1009.1
20260505231527 71 221 2.0 4.0 0.00 0.00 0.00 41 1009.0
20260505231027 71 240 2.0 6.0 0.00 0.00 0.00 40 1009.0
20260505230527 72 183 3.0 10.0 0.00 0.00 0.00 39 1008.9
20260505230047 72 214 3.0 9.0 0.00 0.00 0.00 40 1008.7
20260505225527 72 209 2.0 5.0 0.00 0.00 0.00 39 1008.9
20260505225047 72 222 3.0 11.0 0.00 0.00 0.00 39 1008.8
20260505224527 73 207 2.0 5.0 0.00 0.00 0.00 39 1008.6
20260505224027 73 208 2.0 5.0 0.00 0.00 0.00 38 1008.6
20260505223628 73 204 3.0 6.0 0.00 0.00 0.00 38 1008.6
20260505223027 73 186 3.0 9.0 0.00 0.00 0.00 37 1008.5
20260505222527 74 186 4.0 9.0 0.00 0.00 0.00 37 1008.4
20260505222027 74 181 3.0 5.0 0.00 0.00 0.00 37 1008.5
20260505221527 75 189 2.0 7.0 0.00 0.00 0.00 37 1008.4
20260505221027 75 204 3.0 7.0 0.00 0.00 0.00 37 1008.2
20260505220527 75 200 3.0 7.0 0.00 0.00 0.00 37 1008.3
20260505220027 75 202 2.0 10.0 0.00 0.00 0.00 36 1008.2
20260505215527 75 182 3.0 9.0 0.00 0.00 0.00 36 1008.2
20260505215027 76 184 2.0 5.0 0.00 0.00 0.00 37 1008.1
20260505214527 76 193 3.0 7.0 0.00 0.00 0.00 36 1008.1
20260505214027 76 188 3.0 9.0 0.00 0.00 0.00 35 1008.1
20260505213527 76 184 4.0 10.0 0.00 0.00 0.00 35 1008.2
20260505213027 76 189 3.0 8.0 0.00 0.00 0.00 34 1008.3
20260505212527 76 209 3.0 10.0 0.00 0.00 0.00 35 1008.4
20260505212027 77 180 4.0 10.0 0.00 0.00 0.00 34 1008.3
20260505211527 77 201 4.0 12.0 0.00 0.00 0.00 34 1008.2
20260505211017 77 203 3.0 7.0 0.00 0.00 0.00 34 1008.1
20260505210527 77 179 3.0 8.0 0.00 0.00 0.00 34 1008.2
20260505210027 78 213 3.0 8.0 0.00 0.00 0.00 34 1008.0
20260505205527 78 193 3.0 10.0 0.00 0.00 0.00 32 1008.0
20260505205027 78 191 3.0 7.0 0.00 0.00 0.00 32 1007.9
20260505204527 78 200 3.0 6.0 0.00 0.00 0.00 33 1007.9
20260505204026 78 185 4.0 9.0 0.00 0.00 0.00 32 1007.9
20260505203527 79 213 3.0 7.0 0.00 0.00 0.00 30 1007.9
20260505203027 79 190 4.0 8.0 0.00 0.00 0.00 31 1007.8
20260505202527 80 194 4.0 8.0 0.00 0.00 0.00 31 1007.9
20260505202027 80 185 4.0 11.0 0.00 0.00 0.00 31 1007.9
20260505201527 80 179 3.0 9.0 0.00 0.00 0.00 30 1008.0
20260505201027 80 187 3.0 7.0 0.00 0.00 0.00 30 1007.9
20260505200527 80 200 4.0 15.0 0.00 0.00 0.00 29 1008.1
20260505200027 81 185 5.0 15.0 0.00 0.00 0.00 29 1008.0
20260505195526 81 213 3.0 7.0 0.00 0.00 0.00 29 1007.9
20260505195027 81 193 4.0 12.0 0.00 0.00 0.00 28 1007.9
20260505194527 81 208 5.0 13.0 0.00 0.00 0.00 28 1007.9
20260505194027 81 196 4.0 9.0 0.00 0.00 0.00 28 1008.0
20260505193527 81 183 3.0 7.0 0.00 0.00 0.00 34 1007.9
20260505193047 81 216 4.0 9.0 0.00 0.00 0.00 29 1007.9
20260505192526 81 197 3.0 8.0 0.00 0.00 0.00 30 1007.9
20260505192027 81 179 3.0 7.0 0.00 0.00 0.00 29 1008.1
20260505191527 82 187 4.0 7.0 0.00 0.00 0.00 27 1008.4
20260505191027 82 185 4.0 8.0 0.00 0.00 0.00 28 1008.3
20260505190527 82 217 3.0 9.0 0.00 0.00 0.00 29 1008.3
20260505190047 81 199 5.0 13.0 0.00 0.00 0.00 28 1008.3
20260505185527 81 195 4.0 14.0 0.00 0.00 0.00 29 1008.4
20260505185027 82 188 3.0 12.0 0.00 0.00 0.00 29 1008.4
20260505184547 82 184 4.0 9.0 0.00 0.00 0.00 30 1008.6
20260505184027 82 187 2.0 5.0 0.00 0.00 0.00 34 1008.7
20260505183526 82 180 3.0 6.0 0.00 0.00 0.00 30 1008.6
20260505183027 81 181 3.0 6.0 0.00 0.00 0.00 31 1008.7
20260505182527 81 189 4.0 9.0 0.00 0.00 0.00 31 1008.8
20260505182027 81 186 3.0 6.0 0.00 0.00 0.00 32 1009.0
20260505181526 81 184 4.0 10.0 0.00 0.00 0.00 31 1008.8
20260505181047 81 175 3.0 9.0 0.00 0.00 0.00 31 1008.9
20260505180527 81 193 4.0 9.0 0.00 0.00 0.00 30 1009.0
20260505180027 81 197 4.0 10.0 0.00 0.00 0.00 29 1009.1
20260505175526 82 194 3.0 9.0 0.00 0.00 0.00 29 1009.1
20260505175026 81 253 3.0 6.0 0.00 0.00 0.00 30 1009.1
20260505174547 81 194 4.0 9.0 0.00 0.00 0.00 32 1009.0
20260505174027 81 173 4.0 8.0 0.00 0.00 0.00 32 1009.0
20260505173527 81 199 3.0 6.0 0.00 0.00 0.00 29 1009.1
20260505173027 81 178 4.0 8.0 0.00 0.00 0.00 31 1009.1
20260505172526 81 194 3.0 6.0 0.00 0.00 0.00 31 1009.2
20260505172026 80 175 3.0 8.0 0.00 0.00 0.00 31 1009.2
20260505171527 80 182 3.0 8.0 0.00 0.00 0.00 34 1009.3
20260505171047 79 187 3.0 8.0 0.00 0.00 0.00 33 1009.2
20260505170526 79 175 5.0 9.0 0.00 0.00 0.00 34 1009.4
20260505170047 79 176 3.0 7.0 0.00 0.00 0.00 34 1009.6
20260505165526 79 167 4.0 10.0 0.00 0.00 0.00 37 1009.9
20260505165026 78 182 3.0 7.0 0.00 0.00 0.00 38 1009.7
20260505164607 78 170 4.0 9.0 0.00 0.00 0.00 37 1009.8
20260505164026 78 178 3.0 5.0 0.00 0.00 0.00 40 1010.0
20260505163526 78 182 3.0 8.0 0.00 0.00 0.00 38 1010.0
20260505163027 77 177 3.0 8.0 0.00 0.00 0.00 39 1010.1
20260505162526 77 194 2.0 7.0 0.00 0.00 0.00 37 1010.3
20260505162028 77 199 4.0 12.0 0.00 0.00 0.00 38 1010.3
20260505161527 77 218 2.0 8.0 0.00 0.00 0.00 38 1010.5
20260505161026 77 233 3.0 10.0 0.00 0.00 0.00 37 1010.5
20260505160526 76 189 2.0 7.0 0.00 0.00 0.00 38 1010.5
20260505153026 73 190 3.0 6.0 0.00 0.00 0.00 42 1011.2
20260505152526 73 227 2.0 4.0 0.00 0.00 0.00 43 1011.2
20260505152047 73 168 3.0 9.0 0.00 0.00 0.00 42 1011.3
20260505151526 73 173 2.0 6.0 0.00 0.00 0.00 43 1011.2
20260505151026 72 156 3.0 8.0 0.00 0.00 0.00 44 1011.5
20260505150526 72 163 2.0 7.0 0.00 0.00 0.00 46 1011.3
20260505140526 66 175 1.0 3.0 0.00 0.00 0.00 46 1011.5
20260505125026 63 170 3.0 6.0 0.00 0.00 0.00 38 1011.8
20260505124526 62 175 3.0 6.0 0.00 0.00 0.00 36 1011.9
20260505124027 62 196 2.0 4.0 0.00 0.00 0.00 37 1011.8
20260505123526 61 167 2.0 10.0 0.00 0.00 0.00 39 1011.6
20260505123036 61 167 2.0 5.0 0.00 0.00 0.00 37 1011.8
20260505122526 60 177 2.0 4.0 0.00 0.00 0.00 36 1011.7
20260505122026 59 181 1.0 3.0 0.00 0.00 0.00 37 1011.7
20260505121526 58 173 2.0 5.0 0.00 0.00 0.00 38 1011.8
20260505121026 57 215 1.0 4.0 0.00 0.00 0.00 39 1011.9
20260505120526 56 191 1.0 3.0 0.00 0.00 0.00 40 1011.9
20260505120026 56 188 1.0 3.0 0.00 0.00 0.00 40 1011.9
20260505115526 56 173 1.0 2.0 0.00 0.00 0.00 40 1012.1
20260505115026 55 193 1.0 3.0 0.00 0.00 0.00 42 1012.0
20260505114526 55 194 1.0 9.0 0.00 0.00 0.00 42 1012.0
20260505114046 54 0.0 0.0 0.00 0.00 0.00 44 1011.9
20260505113546 54 170 1.0 3.0 0.00 0.00 0.00 44 1012.0
20260505113027 54 257 1.0 4.0 0.00 0.00 0.00 45 1012.5
20260505112526 53 237 1.0 3.0 0.00 0.00 0.00 45 1012.1
20260505112046 53 198 1.0 3.0 0.00 0.00 0.00 46 1011.8
20260505111526 52 164 1.0 3.0 0.00 0.00 0.00 47 1011.7
20260505111026 51 143 2.0 8.0 0.00 0.00 0.00 48 1011.6
20260505110526 49 116 1.0 3.0 0.00 0.00 0.00 48 1011.6
20260505102026 45 0.0 0.0 0.00 0.00 0.00 47 1011.3
20260505101546 45 0.0 0.0 0.00 0.00 0.00 47 1011.2
20260505101026 45 0.0 0.0 0.00 0.00 0.00 47 1011.2
20260505100526 45 0.0 1.0 0.00 0.00 0.00 47 1011.1
20260505100026 45 0.0 0.0 0.00 0.00 0.00 48 1011.0
20260505095526 45 0.0 1.0 0.00 0.00 0.00 47 1010.9
20260505095026 45 0.0 0.0 0.00 0.00 0.00 47 1011.1
20260505094526 44 0.0 0.0 0.00 0.00 0.00 47 1011.1
20260505094025 44 0.0 0.0 0.00 0.00 0.00 47 1011.2
20260505093606 44 0.0 0.0 0.00 0.00 0.00 47 1011.2
20260505093025 44 0.0 0.0 0.00 0.00 0.00 47 1011.2
20260505092525 44 0.0 0.0 0.00 0.00 0.00 47 1011.2
20260505092025 44 0.0 0.0 0.00 0.00 0.00 46 1011.2
20260505091526 44 0.0 0.0 0.00 0.00 0.00 46 1011.3
20260505091026 44 0.0 0.0 0.00 0.00 0.00 45 1011.3
20260505090526 44 0.0 0.0 0.00 0.00 0.00 45 1011.2
20260505090046 44 0.0 0.0 0.00 0.00 0.00 45 1011.2
20260505085525 44 0.0 0.0 0.00 0.00 0.00 45 1011.2
20260505085046 44 0.0 0.0 0.00 0.00 0.00 44 1011.2
20260505084525 44 0.0 0.0 0.00 0.00 0.00 44 1011.2
20260505084025 44 0.0 0.0 0.00 0.00 0.00 44 1011.2
20260505083546 44 0.0 0.0 0.00 0.00 0.00 44 1011.3
20260505083026 44 0.0 0.0 0.00 0.00 0.00 44 1011.5
20260505082525 45 0.0 0.0 0.00 0.00 0.00 44 1011.4
20260505082025 45 0.0 0.0 0.00 0.00 0.00 44 1011.4
20260505081526 45 0.0 0.0 0.00 0.00 0.00 43 1011.4
20260505081106 45 0.0 1.0 0.00 0.00 0.00 43 1011.5
20260505080525 45 0.0 0.0 0.00 0.00 0.00 43 1011.3
20260505080025 45 0.0 1.0 0.00 0.00 0.00 42 1011.4
20260505075525 45 0.0 1.0 0.00 0.00 0.00 42 1011.4
20260505075026 45 0.0 2.0 0.00 0.00 0.00 43 1011.4
20260505074525 45 0.0 0.0 0.00 0.00 0.00 44 1011.4
20260505074026 45 0.0 1.0 0.00 0.00 0.00 44 1011.4
20260505073525 45 0.0 0.0 0.00 0.00 0.00 45 1011.5
20260505073025 45 0.0 1.0 0.00 0.00 0.00 48 1011.5
20260505072525 46 0.0 0.0 0.00 0.00 0.00 49 1011.6
20260505072025 46 0.0 0.0 0.00 0.00 0.00 51 1011.6
20260505071525 46 0.0 1.0 0.00 0.00 0.00 53 1011.5
20260505071025 46 0.0 0.0 0.00 0.00 0.00 56 1011.6
20260505070526 46 0.0 1.0 0.00 0.00 0.00 57 1011.6
20260505070027 46 0.0 0.0 0.00 0.00 0.00 58 1011.5
20260505065527 47 0.0 0.0 0.00 0.00 0.00 59 1011.6
20260505065025 47 0.0 0.0 0.00 0.00 0.00 60 1011.6
20260505064545 47 0.0 0.0 0.00 0.00 0.00 61 1011.7
20260505064027 48 0.0 0.0 0.00 0.00 0.00 62 1011.8
20260505063545 48 0.0 0.0 0.00 0.00 0.00 63 1011.7
20260505063028 49 0.0 0.0 0.00 0.00 0.00 63 1011.8
20260505062527 49 0.0 2.0 0.00 0.00 0.00 63 1011.9
20260505062027 49 0.0 1.0 0.00 0.00 0.00 62 1011.8
20260505061527 50 0.0 2.0 0.00 0.00 0.00 62 1011.9
20260505061047 50 254 1.0 2.0 0.00 0.00 0.00 62 1011.9
20260505060527 50 254 1.0 2.0 0.00 0.00 0.00 61 1011.9
20260505060027 50 254 1.0 2.0 0.00 0.00 0.00 61 1011.9
20260505055527 51 0.0 2.0 0.00 0.00 0.00 60 1011.9
20260505055027 51 0.0 2.0 0.00 0.00 0.00 60 1012.1
20260505054527 51 254 1.0 2.0 0.00 0.00 0.00 60 1012.1
20260505054027 51 254 1.0 2.0 0.00 0.00 0.00 60 1012.2
20260505053527 51 0.0 1.0 0.00 0.00 0.00 60 1012.1
20260505053025 51 0.0 1.0 0.00 0.00 0.00 60 1012.2
20260505052547 51 0.0 2.0 0.00 0.00 0.00 60 1012.2
20260505052027 51 0.0 2.0 0.00 0.00 0.00 60 1012.2
20260505051527 51 0.0 2.0 0.00 0.00 0.00 60 1012.3
20260505051027 52 0.0 1.0 0.00 0.00 0.00 59 1012.3
20260505050527 52 238 1.0 2.0 0.00 0.00 0.00 59 1012.2
20260505041548 53 171 1.0 3.0 0.00 0.00 0.00 57 1012.5
20260505041027 53 0.0 1.0 0.00 0.00 0.00 57 1012.6
20260505040528 53 0.0 1.0 0.00 0.00 0.00 57 1012.5
20260505040027 53 142 1.0 3.0 0.00 0.00 0.00 57 1012.5